Location: Laas
(43.4693°N, 0.3073°E)
Time: 15:44:48
(UTC+00:00)

Cosmos 1689 Rocket - Pass Details

Date: 25 October 2020
Orbit: 360 x 375 km, 97.5° (Epoch: 23 November)

Event Time Altitude Azimuth Distance (km) Brightness Sun altitude
Rises 17:41:39 0° 21° (NNE) 2,211 5.6 -8.3°
Reaches altitude 10° 17:43:43 10° 32° (NNE) 1,356 4.5 -8.7°
Maximum altitude 17:46:21 32° 98° (E) 643 2.7 -9.2°
Drops below altitude 10° 17:48:59 10° 165° (SSE) 1,340 4.7 -9.6°
Sets 17:51:00 0° 176° (S) 2,181 5.9 -10.0°
